When you browse on this site, cookies collect data to enhance your experience and personalize the content and advertising you see.
Visit our Privacy Policy to learn more. By continuing to use the site, you agree to this use of cookies and data.
  • In Hungary
  • List of Countries
  • For 7 days
  • Water Temperature
  • Satellite Maps
  • Weather Map
  • News
  • Weather Widgets
  • user-avatar
    Login

    Hourly Weather Moknin

    Today, 24 April, Wednesday

    Time Temperature Precipitation Wind Pressure Humidity
    00:00 +22°C° 0 mm 3 mps 756 mmHg 37%
    01:00 +23°C° 0 mm 2 mps 757 mmHg 38%
    02:00 +21°C° 0 mm 2 mps 757 mmHg 40%
    03:00 +21°C° 0 mm 2 mps 757 mmHg 42%
    04:00 +20°C° 0 mm 2 mps 757 mmHg 44%
    05:00 +21°C° 0 mm 2 mps 757 mmHg 44%
    06:00 +22°C° 0 mm 1 mps 757 mmHg 43%
    07:00 +23°C° 0 mm 1 mps 757 mmHg 43%
    08:00 +24°C° 0 mm 2 mps 757 mmHg 41%
    09:00 +25°C° 0 mm 3 mps 757 mmHg 38%
    10:00 +26°C° 0 mm 4 mps 757 mmHg 36%
    11:00 +26°C° 0 mm 5 mps 757 mmHg 38%
    12:00 +26°C° 0 mm 5 mps 758 mmHg 40%
    13:00 +26°C° 0 mm 6 mps 758 mmHg 41%
    14:00 +26°C° 0 mm 5 mps 758 mmHg 44%
    15:00 +25°C° 0 mm 5 mps 758 mmHg 47%
    16:00 +25°C° 0 mm 5 mps 758 mmHg 50%
    17:00 +22°C° 0 mm 5 mps 758 mmHg 56%
    18:00 +21°C° 0 mm 5 mps 759 mmHg 62%
    19:00 +20°C° 0 mm 6 mps 759 mmHg 69%
    20:00 +19°C° 0 mm 6 mps 759 mmHg 70%
    21:00 +19°C° 0 mm 6 mps 760 mmHg 71%
    22:00 +19°C° 0 mm 6 mps 760 mmHg 72%
    23:00 +19°C° 0 mm 6 mps 760 mmHg 73%

    Tomorrow, 25 April, Thursday

    Time Temperature Precipitation Wind Pressure Humidity
    00:00 +19°C° 0 mm 5 mps 760 mmHg 74%
    01:00 +18°C° 0 mm 4 mps 760 mmHg 75%
    02:00 +18°C° 0 mm 4 mps 760 mmHg 77%
    03:00 +18°C° 0 mm 4 mps 760 mmHg 78%
    04:00 +18°C° 0 mm 4 mps 760 mmHg 80%
    05:00 +18°C° 0 mm 4 mps 760 mmHg 77%
    06:00 +18°C° 0 mm 4 mps 760 mmHg 75%
    07:00 +19°C° 0 mm 4 mps 760 mmHg 72%
    08:00 +20°C° 0 mm 4 mps 761 mmHg 67%
    09:00 +21°C° 0 mm 4 mps 761 mmHg 61%
    10:00 +22°C° 0 mm 4 mps 761 mmHg 56%
    11:00 +23°C° 0 mm 4 mps 761 mmHg 55%
    12:00 +23°C° 0 mm 4 mps 761 mmHg 55%
    13:00 +25°C° 0 mm 4 mps 761 mmHg 54%
    14:00 +25°C° 0 mm 4 mps 761 mmHg 55%
    15:00 +25°C° 0 mm 4 mps 761 mmHg 57%
    16:00 +25°C° 0 mm 4 mps 761 mmHg 58%
    17:00 +22°C° 0 mm 4 mps 761 mmHg 62%
    18:00 +21°C° 0 mm 4 mps 761 mmHg 65%
    19:00 +20°C° 0 mm 4 mps 761 mmHg 69%
    20:00 +20°C° 0 mm 4 mps 761 mmHg 70%
    21:00 +20°C° 0 mm 3 mps 762 mmHg 72%
    22:00 +19°C° 0 mm 2 mps 763 mmHg 73%
    23:00 +19°C° 0 mm 2 mps 763 mmHg 74%

    Day after tomorrow, 26 April, Friday

    Time Temperature Precipitation Wind Pressure Humidity
    00:00 +19°C° 0 mm 2 mps 762 mmHg 75%
    01:00 +18°C° 0 mm 2 mps 762 mmHg 76%
    02:00 +18°C° 0 mm 2 mps 762 mmHg 77%
    03:00 +18°C° 0 mm 2 mps 762 mmHg 78%
    04:00 +18°C° 0 mm 2 mps 762 mmHg 79%
    05:00 +18°C° 0 mm 2 mps 762 mmHg 78%
    06:00 +18°C° 0 mm 2 mps 762 mmHg 76%
    07:00 +20°C° 0 mm 1 mps 762 mmHg 74%
    08:00 +20°C° 0 mm 2 mps 763 mmHg 68%
    09:00 +21°C° 0 mm 2 mps 763 mmHg 62%
    10:00 +24°C° 0 mm 3 mps 764 mmHg 56%
    11:00 +23°C° 0 mm 4 mps 764 mmHg 54%
    12:00 +25°C° 0 mm 5 mps 764 mmHg 52%
    13:00 +24°C° 0 mm 6 mps 764 mmHg 50%
    14:00 +24°C° 0 mm 7 mps 764 mmHg 50%
    15:00 +24°C° 0 mm 8 mps 764 mmHg 50%
    16:00 +24°C° 0 mm 9 mps 763 mmHg 50%
    17:00 +23°C° 0 mm 9 mps 763 mmHg 52%
    18:00 +22°C° 0 mm 9 mps 764 mmHg 54%
    19:00 +21°C° 0 mm 9 mps 764 mmHg 57%
    20:00 +21°C° 0 mm 9 mps 764 mmHg 57%
    21:00 +19°C° 0 mm 9 mps 765 mmHg 57%
    22:00 +18°C° 0 mm 8 mps 765 mmHg 57%
    23:00 +18°C° 0 mm 8 mps 765 mmHg 55%

    27 April, Saturday

    Time Temperature Precipitation Wind Pressure Humidity
    00:00 +18°C° 0 mm 8 mps 765 mmHg 53%
    01:00 +17°C° 0 mm 8 mps 765 mmHg 51%
    02:00 +17°C° 0 mm 8 mps 765 mmHg 53%
    03:00 +16°C° 0 mm 9 mps 765 mmHg 55%
    04:00 +16°C° 0 mm 9 mps 765 mmHg 57%
    05:00 +16°C° 0 mm 9 mps 765 mmHg 56%
    06:00 +16°C° 0 mm 9 mps 765 mmHg 55%
    07:00 +16°C° 0 mm 10 mps 765 mmHg 54%
    08:00 +17°C° 0 mm 10 mps 765 mmHg 52%
    09:00 +18°C° 0 mm 10 mps 766 mmHg 49%
    10:00 +19°C° 0 mm 10 mps 766 mmHg 46%
    11:00 +21°C° 0 mm 9 mps 766 mmHg 45%
    12:00 +21°C° 0 mm 9 mps 765 mmHg 43%
    13:00 +22°C° 0 mm 9 mps 765 mmHg 42%
    14:00 +22°C° 0 mm 9 mps 765 mmHg 42%
    15:00 +22°C° 0 mm 9 mps 765 mmHg 42%
    16:00 +22°C° 0 mm 8 mps 764 mmHg 42%
    17:00 +21°C° 0 mm 8 mps 764 mmHg 43%
    18:00 +20°C° 0 mm 8 mps 765 mmHg 44%
    19:00 +20°C° 0 mm 8 mps 765 mmHg 46%
    20:00 +18°C° 0 mm 7 mps 765 mmHg 48%
    21:00 +17°C° 0 mm 7 mps 766 mmHg 50%
    22:00 +17°C° 0 mm 6 mps 766 mmHg 52%
    23:00 +16°C° 0 mm 6 mps 766 mmHg 54%

    28 April, Sunday

    Time Temperature Precipitation Wind Pressure Humidity
    00:00 +16°C° 0 mm 6 mps 766 mmHg 57%
    01:00 +15°C° 0 mm 6 mps 765 mmHg 59%
    02:00 +15°C° 0 mm 6 mps 765 mmHg 60%
    03:00 +15°C° 0 mm 5 mps 765 mmHg 61%
    04:00 +14°C° 0 mm 4 mps 765 mmHg 62%
    05:00 +15°C° 0 mm 5 mps 765 mmHg 61%
    06:00 +15°C° 0 mm 5 mps 764 mmHg 59%
    07:00 +15°C° 0 mm 5 mps 764 mmHg 58%
    08:00 +16°C° 0 mm 5 mps 764 mmHg 55%
    09:00 +17°C° 0 mm 5 mps 764 mmHg 52%
    10:00 +19°C° 0 mm 5 mps 765 mmHg 50%
    11:00 +20°C° 0 mm 4 mps 764 mmHg 46%
    12:00 +21°C° 0 mm 4 mps 764 mmHg 43%
    13:00 +22°C° 0 mm 4 mps 764 mmHg 40%
    14:00 +22°C° 0 mm 4 mps 763 mmHg 41%
    15:00 +22°C° 0 mm 5 mps 763 mmHg 42%
    16:00 +22°C° 0 mm 5 mps 762 mmHg 43%
    17:00 +21°C° 0 mm 5 mps 762 mmHg 50%
    18:00 +20°C° 0 mm 6 mps 762 mmHg 57%
    19:00 +17°C° 0 mm 6 mps 762 mmHg 64%
    20:00 +17°C° 0 mm 5 mps 763 mmHg 66%
    21:00 +18°C° 0 mm 4 mps 763 mmHg 67%
    22:00 +17°C° 0 mm 3 mps 764 mmHg 69%
    23:00 +17°C° 0 mm 2 mps 763 mmHg 71%

    29 April, Monday

    Time Temperature Precipitation Wind Pressure Humidity
    00:00 +17°C° 0 mm 2 mps 763 mmHg 72%
    01:00 +16°C° 0 mm 1 mps 763 mmHg 73%
    02:00 +16°C° 0 mm 1 mps 763 mmHg 74%
    03:00 +16°C° 0 mm 1 mps 763 mmHg 75%
    04:00 +16°C° 0 mm 1 mps 762 mmHg 76%
    05:00 +16°C° 0 mm 1 mps 762 mmHg 74%
    06:00 +16°C° 0 mm 1 mps 763 mmHg 73%
    07:00 +16°C° 0 mm 1 mps 763 mmHg 71%
    08:00 +18°C° 0 mm 2 mps 762 mmHg 64%
    09:00 +19°C° 0 mm 2 mps 762 mmHg 58%
    10:00 +20°C° 0 mm 2 mps 762 mmHg 52%
    11:00 +21°C° 0 mm 3 mps 762 mmHg 48%
    12:00 +22°C° 0 mm 3 mps 762 mmHg 45%
    13:00 +23°C° 0 mm 4 mps 761 mmHg 42%
    14:00 +23°C° 0 mm 5 mps 761 mmHg 44%
    15:00 +23°C° 0 mm 6 mps 760 mmHg 45%
    16:00 +23°C° 0 mm 7 mps 760 mmHg 47%
    17:00 +22°C° 0 mm 7 mps 760 mmHg 52%
    18:00 +20°C° 0 mm 7 mps 760 mmHg 58%
    19:00 +19°C° 0 mm 6 mps 760 mmHg 63%
    20:00 +17°C° 0 mm 5 mps 760 mmHg 66%
    21:00 +18°C° 0 mm 4 mps 761 mmHg 69%
    22:00 +18°C° 0 mm 4 mps 761 mmHg 71%
    23:00 +17°C° 0 mm 3 mps 761 mmHg 73%
    Show more